EW5808 Cabra ES current weather conditions

sailwx.info

Wind from 020

Air temperature 11.7° C
Dewpoint 5.1° C

Last reported at 2018-Dec-15 10:08 UTC.
Time now 2018-Dec-15 11:03 UTC

Location: N 37°28' W 004°27'.
View on Google Maps.

See reports from other nearby stations

  
Tides and Currents Weather Stations Pressure Air Temp Water Temp Dewpoint Dewpoint Depression Visibility Wind Speed Wind Dir Waves Ship Positions
date/time (UTC)wind fromknots sea level pressurealtimeterstation pressurevisibilityair tempwater tempwave heightnotes
2018-Dec-15 10:08 020 11.7
2018-Dec-15 10:03 020 0 gusting 2 11.7
2018-Dec-15 09:58 020 11.7
2018-Dec-15 09:53 020 11.7
2018-Dec-15 09:48 022 11.1
2018-Dec-15 09:43 022 11.1
2018-Dec-15 09:38 020 10.6
2018-Dec-15 09:33 020 10.0
2018-Dec-15 09:28 020 10.0
2018-Dec-15 09:23 020 9.4
2018-Dec-15 09:18 020 8.9
2018-Dec-15 09:13 020 8.9
2018-Dec-15 09:08 019 8.3
2018-Dec-15 09:03 020 7.8
2018-Dec-15 08:58 020 7.8
2018-Dec-15 08:53 020 7.2
2018-Dec-15 08:49 360 6.7
2018-Dec-15 08:43 360 6.7
2018-Dec-15 08:38 360 6.1
2018-Dec-15 08:33 020 6.1
2018-Dec-15 08:28 020 5.6
2018-Dec-15 08:23 020 5.6
2018-Dec-15 08:18 020 5.0
2018-Dec-15 08:13 024 5.0
2018-Dec-15 08:08 019 5.0
2018-Dec-15 08:03 019 5.0
2018-Dec-15 07:58 019 0 gusting 1 5.0
2018-Dec-15 07:53 019 0 gusting 2 4.4
2018-Dec-15 07:48 019 1 gusting 2 4.4
2018-Dec-15 07:43 019 4.4
2018-Dec-15 07:38 019 0 gusting 1 4.4
2018-Dec-15 07:33 019 4.4
2018-Dec-15 07:28 019 0 gusting 1 4.4
2018-Dec-15 07:23 019 4.4
2018-Dec-15 07:18 019 4.4
2018-Dec-15 07:13 019 4.4
2018-Dec-15 07:08 019 4.4
2018-Dec-15 07:03 019 0 gusting 1 4.4
2018-Dec-15 06:58 019 4.4
2018-Dec-15 06:53 019 4.4
2018-Dec-15 06:48 019 0 gusting 2 4.4
2018-Dec-15 06:43 019 4.4
2018-Dec-15 06:38 019 0 gusting 1 4.4
2018-Dec-15 06:33 019 0 gusting 1 4.4
2018-Dec-15 06:28 019 4.4
2018-Dec-15 06:23 019 4.4
2018-Dec-15 06:18 019 0 gusting 1 4.4
2018-Dec-15 06:13 019 5.0
2018-Dec-15 06:08 019 5.0
2018-Dec-15 06:03 019 5.0
2018-Dec-15 05:58 019 0 gusting 1 5.0
2018-Dec-15 05:53 019 5.0
2018-Dec-15 05:48 019 5.0
2018-Dec-15 05:43 019 0 gusting 2 5.0
2018-Dec-15 05:38 019 0 gusting 1 5.0
2018-Dec-15 05:33 019 0 gusting 2 5.0
2018-Dec-15 05:28 019 0 gusting 1 5.0
2018-Dec-15 05:23 019 5.0
2018-Dec-15 05:18 019 5.0
2018-Dec-15 05:13 019 5.0
2018-Dec-15 05:08 019 5.0
2018-Dec-15 05:03 019 0 gusting 1 5.0
2018-Dec-15 04:58 019 0 gusting 1 5.0
2018-Dec-15 04:53 019 0 gusting 1 5.0
2018-Dec-15 04:48 019 5.0
2018-Dec-15 04:43 019 5.0
2018-Dec-15 04:38 019 0 gusting 2 5.0
2018-Dec-15 04:33 019 0 gusting 2 5.0
2018-Dec-15 04:28 019 0 gusting 1 5.6
2018-Dec-15 04:23 019 5.6
2018-Dec-15 04:18 019 5.6
2018-Dec-15 04:13 019 5.6
2018-Dec-15 04:08 019 5.6
2018-Dec-15 04:03 019 0 gusting 2 5.6
2018-Dec-15 03:58 019 5.6
2018-Dec-15 03:53 019 0 gusting 1 5.6
2018-Dec-15 03:48 019 0 gusting 2 5.6
2018-Dec-15 03:43 019 0 gusting 2 5.6
2018-Dec-15 03:38 019 1 gusting 2 5.0
2018-Dec-15 03:28 019 0 gusting 1 5.0
2018-Dec-15 03:23 019 5.0
2018-Dec-15 03:18 019 5.0
2018-Dec-15 03:13 019 5.0
2018-Dec-15 03:08 019 5.0
2018-Dec-15 03:03 019 5.0
2018-Dec-15 02:58 019 5.0
2018-Dec-15 02:53 019 5.0
2018-Dec-15 02:48 019 5.0
2018-Dec-15 02:43 019 0 gusting 1 5.0
2018-Dec-15 02:38 019 1 gusting 1 5.0
2018-Dec-15 02:33 019 0 gusting 2 5.0
2018-Dec-15 02:28 019 0 gusting 2 5.0
2018-Dec-15 02:23 019 0 gusting 1 5.0
2018-Dec-15 02:18 019 0 gusting 1 5.0
2018-Dec-15 02:13 019 0 gusting 1 5.0
2018-Dec-15 02:08 019 0 gusting 1 5.0
2018-Dec-15 02:03 019 5.0
2018-Dec-15 01:58 019 5.0
2018-Dec-15 01:53 019 1 gusting 2 5.0
2018-Dec-15 01:48 019 0 gusting 1 5.0
2018-Dec-15 01:43 019 0 gusting 1 5.0
2018-Dec-15 01:33 019 5.0
2018-Dec-15 01:28 019 5.0
2018-Dec-15 01:23 019 0 gusting 1 5.0
2018-Dec-15 01:18 019 0 gusting 2 5.0
2018-Dec-15 01:13 019 0 gusting 1 5.0
2018-Dec-15 01:03 019 0 gusting 1 5.0
2018-Dec-15 00:58 019 0 gusting 1 5.0
2018-Dec-15 00:53 019 5.0
2018-Dec-15 00:48 019 5.0
2018-Dec-15 00:43 019 5.0
2018-Dec-15 00:38 019 5.0
2018-Dec-15 00:33 019 5.0
2018-Dec-15 00:28 019 5.0
2018-Dec-15 00:23 019 0 gusting 2 5.0
2018-Dec-15 00:18 019 1 gusting 2 5.0
2018-Dec-15 00:13 019 0 gusting 2 5.0
2018-Dec-15 00:08 019 0 gusting 2 5.0
2018-Dec-15 00:03 019 0 gusting 1 5.0
2018-Dec-14 23:58 019 5.0
2018-Dec-14 23:53 019 0 gusting 1 5.0
2018-Dec-14 23:48 019 5.0
2018-Dec-14 23:43 019 5.0
2018-Dec-14 23:38 019 0 gusting 1 5.0
2018-Dec-14 23:33 019 5.0
2018-Dec-14 23:28 019 5.0
2018-Dec-14 23:23 019 5.0
2018-Dec-14 23:18 019 5.0
2018-Dec-14 23:13 019 0 gusting 1 5.0
2018-Dec-14 23:08 019 0 gusting 1 5.6
2018-Dec-14 22:58 019 0 gusting 1 5.6
2018-Dec-14 22:53 019 5.6
2018-Dec-14 22:48 019 5.6
2018-Dec-14 22:43 019 0 gusting 2 5.6
2018-Dec-14 22:38 019 0 gusting 1 5.6
2018-Dec-14 22:33 019 5.6
2018-Dec-14 22:28 019 5.6
2018-Dec-14 22:23 019 5.6
2018-Dec-14 22:18 019 5.6
2018-Dec-14 22:13 019 6.1
2018-Dec-14 22:08 019 6.1
2018-Dec-14 22:03 019 6.1
2018-Dec-14 21:58 019 6.1
2018-Dec-14 21:53 019 0 gusting 2 6.1
2018-Dec-14 21:48 019 0 gusting 1 6.1
2018-Dec-14 21:43 019 6.1
2018-Dec-14 21:38 019 0 gusting 1 6.1
2018-Dec-14 21:33 019 0 gusting 1 6.1
2018-Dec-14 21:28 019 0 gusting 1 6.1
2018-Dec-14 21:23 019 0 gusting 2 6.1
2018-Dec-14 21:18 019 0 gusting 2 6.1
2018-Dec-14 21:13 019 6.7
2018-Dec-14 21:08 019 6.7
2018-Dec-14 21:03 019 6.7
2018-Dec-14 20:58 019 6.7
2018-Dec-14 20:53 019 6.7
2018-Dec-14 20:48 019 6.7
2018-Dec-14 20:43 019 6.7
2018-Dec-14 20:38 019 6.7
2018-Dec-14 20:33 019 6.7
2018-Dec-14 20:28 019 6.7
2018-Dec-14 20:23 019 0 gusting 1 6.7
2018-Dec-14 20:18 019 0 gusting 1 6.7
2018-Dec-14 20:13 019 6.7
2018-Dec-14 20:08 019 6.7
2018-Dec-14 20:03 019 6.7
2018-Dec-14 19:58 019 0 gusting 1 6.7
2018-Dec-14 19:53 019 0 gusting 1 6.7
2018-Dec-14 19:48 019 6.7
2018-Dec-14 19:43 019 0 gusting 2 6.7
2018-Dec-14 19:38 019 0 gusting 2 7.2
2018-Dec-14 19:33 019 7.2
2018-Dec-14 19:28 019 0 gusting 1 7.2
2018-Dec-14 19:23 019 7.2
2018-Dec-14 19:18 019 7.2
2018-Dec-14 19:13 019 1 gusting 2 7.2
2018-Dec-14 19:08 019 7.2
2018-Dec-14 19:03 019 7.2
2018-Dec-14 18:58 019 0 gusting 2 7.2
2018-Dec-14 18:53 019 7.2
2018-Dec-14 18:48 019 7.2
2018-Dec-14 18:43 019 0 gusting 1 7.2
2018-Dec-14 18:38 019 0 gusting 2 7.2
2018-Dec-14 18:33 019 1 gusting 2 7.2
2018-Dec-14 18:28 019 1 gusting 2 7.8
2018-Dec-14 18:23 019 7.8
2018-Dec-14 18:13 019 0 gusting 2 7.8
2018-Dec-14 18:08 019 1 gusting 2 8.3
2018-Dec-14 18:03 019 0 gusting 1 8.9
2018-Dec-14 17:58 019 8.9
2018-Dec-14 17:53 019 8.9
2018-Dec-14 17:48 019 8.9
2018-Dec-14 17:43 019 8.9
2018-Dec-14 17:38 019 8.9
2018-Dec-14 17:18 019 10.0
2018-Dec-14 17:08 019 10.6
2018-Dec-14 17:03 019 10.6
2018-Dec-14 16:58 019 0 gusting 1 10.6
2018-Dec-14 16:53 019 0 gusting 1 11.1
2018-Dec-14 16:48 019 0 gusting 1 11.1
2018-Dec-14 16:38 360 0 gusting 3 11.1
2018-Dec-14 16:28 025 11.1
2018-Dec-14 16:23 360 11.1
2018-Dec-14 16:18 360 11.1
2018-Dec-14 16:13 026 0 gusting 4 11.1
2018-Dec-14 16:08 040 0 gusting 4 11.1
2018-Dec-14 16:03 013 0 gusting 5 11.1
2018-Dec-14 15:58 344 1 gusting 5 11.1
2018-Dec-14 15:53 360 0 gusting 1 11.7
2018-Dec-14 15:48 360 11.7
2018-Dec-14 15:43 011 1 gusting 6 11.7
2018-Dec-14 15:38 057 1 gusting 4 11.7
2018-Dec-14 15:33 344 11.7
2018-Dec-14 15:28 345 0 gusting 3 11.7
2018-Dec-14 15:23 348 0 gusting 3 12.2
2018-Dec-14 15:18 302 12.2
2018-Dec-14 15:13 274 12.2
2018-Dec-14 15:08 273 0 gusting 2 12.2
2018-Dec-14 15:03 275 1 gusting 4 12.2
2018-Dec-14 14:58 284 1 gusting 6 12.2
2018-Dec-14 14:53 292 1 gusting 6 11.7
2018-Dec-14 14:48 313 2 gusting 7 11.7
2018-Dec-14 14:43 283 2 gusting 7 12.2
2018-Dec-14 14:38 317 2 gusting 6 12.2
2018-Dec-14 14:33 265 1 gusting 6 11.7
2018-Dec-14 14:28 323 2 gusting 6 11.7
2018-Dec-14 14:23 289 0 gusting 3 11.7
2018-Dec-14 14:18 324 1 gusting 5 11.1
2018-Dec-14 14:13 360 0 gusting 5 11.1
2018-Dec-14 14:08 360 1 gusting 5 10.6
2018-Dec-14 14:03 360 2 gusting 6 10.6
2018-Dec-14 13:58 360 3 gusting 9 10.6
2018-Dec-14 13:53 360 3 gusting 9 10.6
2018-Dec-14 13:48 360 3 gusting 8 10.6
2018-Dec-14 13:43 360 1 gusting 7 10.6
2018-Dec-14 13:38 360 3 gusting 7 10.6
2018-Dec-14 13:33 360 3 gusting 7 10.6
2018-Dec-14 13:28 360 2 gusting 6 10.6
2018-Dec-14 13:23 360 3 gusting 6 10.6
2018-Dec-14 13:18 360 2 gusting 6 10.6
2018-Dec-14 13:13 360 1 gusting 5 10.6
2018-Dec-14 13:08 360 1 gusting 7 10.6
2018-Dec-14 13:03 360 0 gusting 5 10.6
2018-Dec-14 12:58 360 1 gusting 5 10.6
2018-Dec-14 12:53 360 1 gusting 3 10.6
2018-Dec-14 12:48 360 0 gusting 4 10.0
2018-Dec-14 12:33 360 2 gusting 8 10.0
2018-Dec-14 12:28 360 1 gusting 4 10.0
2018-Dec-14 12:23 360 0 gusting 6 10.0
2018-Dec-14 12:18 360 3 gusting 6 10.6
2018-Dec-14 12:13 360 1 gusting 6 10.6
2018-Dec-14 12:08 360 1 gusting 6 10.6
2018-Dec-14 12:03 068 1 gusting 8 10.6
2018-Dec-14 11:58 311 3 gusting 8 10.6
2018-Dec-14 11:53 282 1 gusting 6 10.6
2018-Dec-14 11:48 290 1 gusting 5 10.6
2018-Dec-14 11:43 360 2 gusting 5 10.0
2018-Dec-14 11:38 360 1 gusting 5 10.0
2018-Dec-14 11:33 360 1 gusting 4 10.6
2018-Dec-14 11:28 317 1 gusting 5 10.6
2018-Dec-14 11:23 360 1 gusting 5 10.6
2018-Dec-14 11:18 258 10.6
2018-Dec-14 11:13 258 0 gusting 2 10.6
2018-Dec-14 11:08 360 0 gusting 3 10.0
2018-Dec-14 11:03 360 0 gusting 3 10.0
2018-Dec-14 10:58 271 0 gusting 2 10.0
2018-Dec-14 10:53 360 9.4
2018-Dec-14 10:48 188 0 gusting 3 9.4
2018-Dec-14 10:43 185 0 gusting 1 9.4
2018-Dec-14 10:38 185 0 gusting 1 8.9
2018-Dec-14 10:13 360 2 gusting 4 7.8
2018-Dec-14 10:08 189 1 gusting 3 7.8
2018-Dec-14 10:03 296 0 gusting 3 7.2
2018-Dec-14 09:58 298 0 gusting 3 7.2
2018-Dec-14 09:53 298 0 gusting 2 7.2
2018-Dec-14 09:48 298 7.2
2018-Dec-14 09:43 360 7.2
2018-Dec-14 09:38 360 6.7
2018-Dec-14 09:33 360 0 gusting 3 6.7
2018-Dec-14 09:28 360 1 gusting 3 6.7
2018-Dec-14 09:23 298 0 gusting 1 6.1
2018-Dec-14 09:18 360 0 gusting 1 6.1
2018-Dec-14 09:13 360 5.6
2018-Dec-14 09:03 298 0 gusting 2 5.6
2018-Dec-14 08:58 298 5.6
2018-Dec-14 08:53 298 0 gusting 2 5.6
2018-Dec-14 08:48 298 0 gusting 3 5.6
2018-Dec-14 08:43 298 0 gusting 3 5.6
2018-Dec-14 08:38 298 0 gusting 2 5.6
2018-Dec-14 08:33 298 0 gusting 2 5.6
2018-Dec-14 08:28 298 0 gusting 2 5.6
2018-Dec-14 08:23 298 0 gusting 2 5.6
2018-Dec-14 08:18 298 5.6
2018-Dec-14 08:13 298 0 gusting 2 5.6
2018-Dec-14 08:08 298 0 gusting 2 5.6
2018-Dec-14 08:03 298 5.6
2018-Dec-14 07:58 298 5.6
2018-Dec-14 07:53 298 5.6
2018-Dec-14 07:48 298 5.6
2018-Dec-14 07:43 298 5.6
2018-Dec-14 07:38 298 5.6
2018-Dec-14 07:33 298 5.6
2018-Dec-14 07:08 298 1 gusting 2 5.6
2018-Dec-14 07:03 298 5.6
2018-Dec-14 06:58 298 5.6
2018-Dec-14 06:53 298 0 gusting 1 5.6
2018-Dec-14 06:48 298 5.6
2018-Dec-14 06:43 298 5.0
2018-Dec-14 06:38 298 5.0
2018-Dec-14 06:33 298 5.0
2018-Dec-14 06:28 298 5.0
2018-Dec-14 06:23 298 5.0
2018-Dec-14 06:18 298 5.0
2018-Dec-14 06:13 298 5.0
2018-Dec-14 06:08 298 5.0
2018-Dec-14 06:03 298 5.0
2018-Dec-14 05:58 298 5.0
2018-Dec-14 05:53 298 5.0
2018-Dec-14 05:48 298 5.0
2018-Dec-14 05:43 298 5.0
2018-Dec-14 05:38 298 5.0
2018-Dec-14 05:33 298 5.0
2018-Dec-14 05:28 298 0 gusting 2 5.0
2018-Dec-14 05:23 298 0 gusting 2 5.0
2018-Dec-14 05:18 298 0 gusting 2 5.0
2018-Dec-14 05:13 298 5.6
2018-Dec-14 05:08 298 0 gusting 0 5.6
2018-Dec-14 05:03 298 5.6
2018-Dec-14 04:58 298 5.6
2018-Dec-14 04:53 298 5.6
2018-Dec-14 04:48 298 5.6
2018-Dec-14 04:43 298 5.6
2018-Dec-14 04:38 298 5.6
2018-Dec-14 04:33 298 5.6
2018-Dec-14 04:28 298 5.6
2018-Dec-14 04:23 298 5.6
2018-Dec-14 04:18 298 5.6
2018-Dec-14 04:13 298 5.6
2018-Dec-14 04:08 298 5.6
2018-Dec-14 04:03 298 0 gusting 2 5.6
2018-Dec-14 03:58 298 0 gusting 2 6.1
2018-Dec-14 03:53 298 0 gusting 1 6.1
2018-Dec-14 03:48 298 6.1
2018-Dec-14 03:43 298 6.1
2018-Dec-14 03:38 298 6.1
2018-Dec-14 03:33 298 0 gusting 1 6.1
2018-Dec-14 03:28 298 6.1
2018-Dec-14 03:23 298 6.1
2018-Dec-14 03:18 298 6.1
2018-Dec-14 03:13 298 6.1
2018-Dec-14 03:08 298 5.6
2018-Dec-14 03:03 298 0 gusting 1 5.6
2018-Dec-14 02:58 298 5.6
2018-Dec-14 02:53 298 5.6
2018-Dec-14 02:48 298 5.6
2018-Dec-14 02:43 298 5.6
2018-Dec-14 02:38 298 5.6
2018-Dec-14 02:33 298 5.6
2018-Dec-14 02:28 298 5.6
2018-Dec-14 02:23 298 5.6
2018-Dec-14 02:18 298 5.6
2018-Dec-14 02:13 298 0 gusting 2 5.0
2018-Dec-14 02:08 296 5.0
2018-Dec-14 02:03 296 5.0
2018-Dec-14 01:58 296 5.0
2018-Dec-14 01:53 296 5.0
2018-Dec-14 01:48 296 5.0
2018-Dec-14 01:43 296 5.0
2018-Dec-14 01:38 296 5.0
2018-Dec-14 01:33 296 5.0
2018-Dec-14 01:28 296 5.0
2018-Dec-14 01:23 296 5.0
2018-Dec-14 01:18 296 5.0
2018-Dec-14 01:13 296 5.6
2018-Dec-14 01:08 296 5.6
2018-Dec-14 01:03 296 5.6
2018-Dec-14 00:58 296 5.6
2018-Dec-14 00:53 296 5.6
2018-Dec-14 00:48 296 0 gusting 1 5.6
2018-Dec-14 00:43 296 5.6
2018-Dec-14 00:38 296 5.6
2018-Dec-14 00:33 296 5.6
2018-Dec-14 00:28 296 5.6
2018-Dec-14 00:23 296 5.6
2018-Dec-14 00:18 296 0 gusting 1 5.6
2018-Dec-14 00:13 296 6.1
2018-Dec-14 00:08 296 6.1
2018-Dec-14 00:03 296 6.1
2018-Dec-13 23:58 296 6.1
2018-Dec-13 23:53 296 6.1
2018-Dec-13 23:48 296 6.1
2018-Dec-13 23:43 296 6.1
2018-Dec-13 23:38 296 6.1
2018-Dec-13 23:33 296 6.1
2018-Dec-13 23:28 296 6.1
2018-Dec-13 23:23 296 6.1
2018-Dec-13 23:18 296 6.1
2018-Dec-13 23:13 296 6.7
2018-Dec-13 23:08 296 0 gusting 2 6.7
2018-Dec-13 23:03 290 0 gusting 1 6.7
2018-Dec-13 22:58 290 6.7
2018-Dec-13 22:53 290 6.7
2018-Dec-13 22:48 290 6.7
2018-Dec-13 22:43 290 6.7
2018-Dec-13 22:38 290 6.7
2018-Dec-13 22:33 290 6.7
2018-Dec-13 22:28 290 0 gusting 2 6.7
2018-Dec-13 22:23 290 0 gusting 2 6.7
2018-Dec-13 22:18 290 7.2
2018-Dec-13 22:13 290 7.2
2018-Dec-13 22:08 290 7.2
2018-Dec-13 22:03 290 7.2
2018-Dec-13 21:58 290 0 gusting 1 7.2
2018-Dec-13 21:53 290 7.2
2018-Dec-13 21:48 290 7.2
2018-Dec-13 21:43 290 7.2
2018-Dec-13 21:38 290 7.2
2018-Dec-13 21:33 290 1 gusting 3 7.2
2018-Dec-13 21:28 280 0 gusting 4 7.2
2018-Dec-13 21:23 277 1 gusting 7 7.2
2018-Dec-13 21:18 246 1 gusting 7 7.2
2018-Dec-13 21:13 355 0 gusting 4 7.2
2018-Dec-13 21:08 355 0 gusting 4 7.2
2018-Dec-13 21:03 045 2 gusting 3 7.2
2018-Dec-13 20:58 305 1 gusting 2 7.2
2018-Dec-13 20:53 292 0 gusting 1 7.8
2018-Dec-13 20:48 292 7.8
2018-Dec-13 20:43 293 0 gusting 2 7.8
2018-Dec-13 20:38 293 7.8
2018-Dec-13 20:33 293 7.8
2018-Dec-13 20:28 293 0 gusting 2 7.8
2018-Dec-13 20:23 293 0 gusting 1 7.8
2018-Dec-13 20:18 293 7.8
2018-Dec-13 20:13 293 0 gusting 2 8.3
2018-Dec-13 20:08 293 1 gusting 2 8.3
2018-Dec-13 20:03 293 0 gusting 1 8.3
2018-Dec-13 19:58 293 8.3
2018-Dec-13 19:53 293 0 gusting 1 8.3
2018-Dec-13 19:48 293 0 gusting 1 8.3
2018-Dec-13 19:43 293 0 gusting 2 8.3
2018-Dec-13 19:38 293 8.3
2018-Dec-13 19:33 293 1 gusting 4 8.3
2018-Dec-13 19:28 295 0 gusting 3 8.3
2018-Dec-13 19:23 296 1 gusting 3 8.9
2018-Dec-13 19:18 296 0 gusting 2 8.9
2018-Dec-13 19:13 294 8.9
2018-Dec-13 19:08 294 0 gusting 2 8.9
2018-Dec-13 19:03 294 0 gusting 2 8.9
2018-Dec-13 18:58 294 0 gusting 4 8.9
2018-Dec-13 18:53 294 1 gusting 4 8.9
2018-Dec-13 18:48 286 1 gusting 6 8.9
2018-Dec-13 18:43 281 1 gusting 6 9.4
2018-Dec-13 18:38 300 3 gusting 8 9.4
2018-Dec-13 18:33 282 3 gusting 8 9.4
2018-Dec-13 18:28 289 3 gusting 7 9.4
2018-Dec-13 18:23 295 2 gusting 8 9.4
2018-Dec-13 18:18 327 3 gusting 8 9.4
2018-Dec-13 18:13 301 3 gusting 8 9.4
2018-Dec-13 18:08 279 3 gusting 10 9.4
2018-Dec-13 18:03 288 3 gusting 10 9.4
2018-Dec-13 17:58 302 3 gusting 9 9.4
2018-Dec-13 17:53 313 3 gusting 10 10.0
2018-Dec-13 17:48 309 3 gusting 12 10.0
2018-Dec-13 17:43 284 4 gusting 12 10.0
2018-Dec-13 17:38 360 4 gusting 12 10.0
2018-Dec-13 17:33 318 5 gusting 12 10.0
2018-Dec-13 17:28 296 3 gusting 10 10.0
2018-Dec-13 17:23 306 3 gusting 11 10.0
2018-Dec-13 17:18 277 4 gusting 11 10.0
2018-Dec-13 17:13 307 3 gusting 12 10.0
2018-Dec-13 17:08 299 6 gusting 12 10.6
2018-Dec-13 17:03 286 6 gusting 12 10.6
2018-Dec-13 16:58 316 4 gusting 12 10.6
2018-Dec-13 16:53 302 5 gusting 10 10.6
2018-Dec-13 16:48 291 5 gusting 12 10.6
2018-Dec-13 16:43 058 5 gusting 12 11.1
2018-Dec-13 16:38 360 4 gusting 12 11.1
2018-Dec-13 16:33 294 5 gusting 14 11.1
2018-Dec-13 16:28 306 3 gusting 14 11.1
2018-Dec-13 16:23 302 3 gusting 11 11.1
2018-Dec-13 16:18 272 5 gusting 11 11.1
2018-Dec-13 16:13 360 4 gusting 9 11.1
2018-Dec-13 16:08 326 4 gusting 9 11.1
2018-Dec-13 16:03 306 2 gusting 9 11.1
2018-Dec-13 15:58 297 2 gusting 12 11.1
2018-Dec-13 15:53 360 5 gusting 13 11.1
2018-Dec-13 15:48 360 5 gusting 13 11.1
2018-Dec-13 15:43 360 5 gusting 15 11.1
2018-Dec-13 15:38 013 5 gusting 15 11.1
2018-Dec-13 15:33 267 3 gusting 14 11.1
2018-Dec-13 15:28 312 3 gusting 14 11.1
2018-Dec-13 15:23 289 7 gusting 15 11.1
2018-Dec-13 15:18 360 6 gusting 14 11.1
2018-Dec-13 15:13 302 3 gusting 12 11.1
2018-Dec-13 15:08 082 6 gusting 13 11.1
2018-Dec-13 15:03 298 6 gusting 15 11.1
2018-Dec-13 14:58 305 7 gusting 15 11.1
2018-Dec-13 14:53 287 7 gusting 14 11.1
2018-Dec-13 14:48 049 5 gusting 19 11.1
2018-Dec-13 14:43 360 7 gusting 19 11.1
2018-Dec-13 14:38 310 5 gusting 13 11.1
2018-Dec-13 14:33 305 5 gusting 13 11.1
2018-Dec-13 14:28 351 4 gusting 8 10.6
2018-Dec-13 14:23 360 4 gusting 10 10.6
2018-Dec-13 14:18 315 4 gusting 10 10.6
2018-Dec-13 14:13 298 1 gusting 9 10.6
2018-Dec-13 14:08 360 4 gusting 9 10.6
2018-Dec-13 14:03 360 3 gusting 7 10.6
2018-Dec-13 13:58 360 3 gusting 7 10.6
2018-Dec-13 13:53 360 2 gusting 7 10.6
2018-Dec-13 13:48 360 2 gusting 10 10.6
2018-Dec-13 13:43 360 3 gusting 10 10.6
2018-Dec-13 13:38 360 4 gusting 13 10.6
2018-Dec-13 13:33 360 6 gusting 13 10.6
2018-Dec-13 13:28 360 6 gusting 17 10.6
2018-Dec-13 13:23 360 8 gusting 17 11.1
2018-Dec-13 13:18 360 5 gusting 16 11.7
2018-Dec-13 13:13 313 6 gusting 14 11.7
2018-Dec-13 13:08 345 4 gusting 9 11.7
2018-Dec-13 13:03 360 4 gusting 11 11.7
2018-Dec-13 12:58 281 4 gusting 13 11.1
2018-Dec-13 12:53 360 3 gusting 13 11.1
2018-Dec-13 12:48 360 6 gusting 13 11.7
2018-Dec-13 12:43 360 5 gusting 11 11.1
2018-Dec-13 12:38 360 4 gusting 15 11.1
2018-Dec-13 12:33 360 4 gusting 15 10.6
2018-Dec-13 12:28 303 5 gusting 10 10.6
2018-Dec-13 12:23 263 3 gusting 10 10.6
2018-Dec-13 12:18 293 5 gusting 10 10.6
2018-Dec-13 12:13 360 3 gusting 11 10.6
2018-Dec-13 12:08 360 6 gusting 11 10.6
2018-Dec-13 12:03 360 6 gusting 11 10.0
2018-Dec-13 11:58 360 3 gusting 9 10.0
2018-Dec-13 11:53 360 5 gusting 11 10.0
2018-Dec-13 11:48 360 6 gusting 10 10.0
2018-Dec-13 11:43 360 5 gusting 10 10.0
2018-Dec-13 11:38 360 1 gusting 6 10.0
2018-Dec-13 11:33 360 1 gusting 7 9.4
2018-Dec-13 11:28 360 3 gusting 7 9.4
2018-Dec-13 11:23 360 2 gusting 5 8.9
2018-Dec-13 11:18 315 2 gusting 4 8.9
2018-Dec-13 11:13 286 0 gusting 4 8.9
2018-Dec-13 11:08 360 0 gusting 4 8.3
2018-Dec-13 11:03 360 0 gusting 6 8.3